Wetterdaten: Donnerstag, 29.08.2013
Datum Zeit Temperatur Luftfeuchte Luftdruck Regen Wind Richtung Richtung Taupunkt Windchill Windben
29.08.2013 00:00 9,0 C 90 % 1022,5 hPa 0,0 l/m 0,0 km/h (0 Bft) O 90 7,4 C 8,9 C 1,6 km/h (1 Bft)
29.08.2013 00:05 9,0 C 90 % 1022,5 hPa 0,0 l/m 0,0 km/h (0 Bft) S-SO 157 7,4 C 8,8 C 0,0 km/h (0 Bft)
29.08.2013 00:10 9,2 C 90 % 1022,5 hPa 0,0 l/m 0,2 km/h (0 Bft) O-SO 112 7,6 C 8,8 C 0,0 km/h (0 Bft)
29.08.2013 00:15 9,3 C 91 % 1022,5 hPa 0,0 l/m 0,8 km/h (0 Bft) SO 135 7,9 C 9,0 C 4,5 km/h (1 Bft)
29.08.2013 00:20 9,3 C 91 % 1022,6 hPa 0,0 l/m 1,0 km/h (0 Bft) W 270 7,9 C 9,1 C 0,0 km/h (0 Bft)
29.08.2013 00:25 9,1 C 91 % 1022,6 hPa 0,0 l/m 0,6 km/h (0 Bft) O 90 7,7 C 9,0 C 0,0 km/h (0 Bft)
29.08.2013 00:30 9,1 C 91 % 1022,6 hPa 0,0 l/m 0,2 km/h (0 Bft) O 90 7,7 C 8,9 C 0,0 km/h (0 Bft)
29.08.2013 00:35 9,0 C 91 % 1022,6 hPa 0,0 l/m 0,0 km/h (0 Bft) O 90 7,6 C 8,7 C 0,0 km/h (0 Bft)
29.08.2013 00:40 9,0 C 91 % 1022,6 hPa 0,0 l/m 0,0 km/h (0 Bft) S 180 7,6 C 8,7 C 2,3 km/h (1 Bft)
29.08.2013 00:45 9,0 C 91 % 1022,6 hPa 0,0 l/m 0,3 km/h (0 Bft) O-NO 67 7,6 C 8,6 C 0,0 km/h (0 Bft)
29.08.2013 00:50 9,0 C 91 % 1022,6 hPa 0,0 l/m 1,0 km/h (0 Bft) NO 45 7,6 C 8,6 C 2,3 km/h (1 Bft)
29.08.2013 00:55 8,8 C 91 % 1022,6 hPa 0,0 l/m 1,1 km/h (1 Bft) SO 135 7,4 C 8,7 C 4,8 km/h (1 Bft)
29.08.2013 01:00 8,7 C 91 % 1022,5 hPa 0,0 l/m 0,6 km/h (0 Bft) S-SW 202 7,3 C 8,5 C 0,0 km/h (0 Bft)
29.08.2013 01:05 8,4 C 91 % 1022,5 hPa 0,0 l/m 0,2 km/h (0 Bft) SW 225 7,0 C 8,4 C 0,0 km/h (0 Bft)
29.08.2013 01:10 8,3 C 91 % 1022,5 hPa 0,0 l/m 0,2 km/h (0 Bft) N-NW 337 6,9 C 8,3 C 0,0 km/h (0 Bft)
29.08.2013 01:15 8,2 C 91 % 1022,5 hPa 0,0 l/m 0,0 km/h (0 Bft) NO 45 6,8 C 8,0 C 0,0 km/h (0 Bft)
29.08.2013 01:20 8,3 C 91 % 1022,6 hPa 0,0 l/m 0,2 km/h (0 Bft) S 180 6,9 C 7,9 C 3,1 km/h (1 Bft)
29.08.2013 01:25 8,7 C 91 % 1022,6 hPa 0,0 l/m 0,8 km/h (0 Bft) O 90 7,3 C 8,2 C 2,7 km/h (1 Bft)
29.08.2013 01:30 8,8 C 92 % 1022,6 hPa 0,0 l/m 1,8 km/h (1 Bft) NO 45 7,6 C 8,4 C 1,6 km/h (1 Bft)
29.08.2013 01:35 8,4 C 92 % 1022,6 hPa 0,0 l/m 1,9 km/h (1 Bft) SW 225 7,2 C 8,5 C 5,1 km/h (1 Bft)
29.08.2013 01:40 8,4 C 92 % 1022,6 hPa 0,0 l/m 1,3 km/h (1 Bft) S 180 7,2 C 8,4 C 2,3 km/h (1 Bft)
29.08.2013 01:45 8,7 C 92 % 1022,6 hPa 0,0 l/m 1,0 km/h (0 Bft) NO 45 7,5 C 8,4 C 0,0 km/h (0 Bft)
29.08.2013 01:50 8,5 C 92 % 1022,6 hPa 0,0 l/m 1,1 km/h (1 Bft) N-NO 22 7,3 C 8,5 C 1,8 km/h (1 Bft)
29.08.2013 01:55 8,5 C 92 % 1022,6 hPa 0,0 l/m 0,6 km/h (0 Bft) O 90 7,3 C 8,5 C 1,9 km/h (1 Bft)
29.08.2013 02:00 8,4 C 92 % 1022,3 hPa 0,0 l/m 0,6 km/h (0 Bft) O 90 7,2 C 8,4 C 0,0 km/h (0 Bft)
29.08.2013 02:05 8,4 C 92 % 1022,3 hPa 0,0 l/m 0,2 km/h (0 Bft) SO 135 7,2 C 8,2 C 0,0 km/h (0 Bft)
29.08.2013 02:10 8,4 C 92 % 1022,3 hPa 0,0 l/m 0,2 km/h (0 Bft) W 270 7,2 C 8,2 C 0,0 km/h (0 Bft)
29.08.2013 02:15 8,3 C 92 % 1022,3 hPa 0,0 l/m 0,2 km/h (0 Bft) O 90 7,1 C 8,1 C 0,0 km/h (0 Bft)
29.08.2013 02:20 8,2 C 92 % 1022,4 hPa 0,0 l/m 0,0 km/h (0 Bft) O 90 7,0 C 8,0 C 0,0 km/h (0 Bft)
29.08.2013 02:25 8,2 C 92 % 1022,4 hPa 0,0 l/m 0,2 km/h (0 Bft) O 90 7,0 C 8,0 C 0,0 km/h (0 Bft)
29.08.2013 02:30 8,1 C 92 % 1022,4 hPa 0,0 l/m 0,2 km/h (0 Bft) S 180 6,9 C 8,0 C 0,0 km/h (0 Bft)
29.08.2013 02:35 8,1 C 92 % 1022,4 hPa 0,0 l/m 0,0 km/h (0 Bft) O-SO 112 6,9 C 7,9 C 0,0 km/h (0 Bft)
29.08.2013 02:40 8,0 C 92 % 1022,3 hPa 0,0 l/m 0,0 km/h (0 Bft) S-SW 202 6,8 C 7,8 C 0,0 km/h (0 Bft)
29.08.2013 02:45 8,0 C 92 % 1022,3 hPa 0,0 l/m 0,0 km/h (0 Bft) NO 45 6,8 C 7,8 C 0,0 km/h (0 Bft)
29.08.2013 02:50 7,9 C 92 % 1022,3 hPa 0,0 l/m 0,0 km/h (0 Bft) O-SO 112 6,7 C 7,7 C 0,0 km/h (0 Bft)
29.08.2013 02:55 7,8 C 92 % 1022,3 hPa 0,0 l/m 0,0 km/h (0 Bft) O-NO 67 6,6 C 7,5 C 0,0 km/h (0 Bft)
29.08.2013 03:00 7,9 C 92 % 1022,2 hPa 0,0 l/m 0,0 km/h (0 Bft) NO 45 6,7 C 7,5 C 0,0 km/h (0 Bft)
29.08.2013 03:05 7,6 C 92 % 1022,2 hPa 0,0 l/m 0,0 km/h (0 Bft) O-NO 67 6,4 C 7,4 C 0,0 km/h (0 Bft)
29.08.2013 03:10 7,6 C 92 % 1022,2 hPa 0,0 l/m 0,0 km/h (0 Bft) S-SO 157 6,4 C 7,3 C 0,0 km/h (0 Bft)
29.08.2013 03:15 7,5 C 92 % 1022,2 hPa 0,0 l/m 0,0 km/h (0 Bft) S 180 6,3 C 7,3 C 0,0 km/h (0 Bft)
29.08.2013 03:20 7,4 C 92 % 1022,2 hPa 0,0 l/m 0,0 km/h (0 Bft) S 180 6,2 C 7,1 C 0,0 km/h (0 Bft)
29.08.2013 03:25 7,2 C 92 % 1022,2 hPa 0,0 l/m 0,0 km/h (0 Bft) N-NO 22 6,0 C 6,9 C 0,0 km/h (0 Bft)
29.08.2013 03:30 7,2 C 92 % 1022,2 hPa 0,0 l/m 0,0 km/h (0 Bft) N-NO 22 6,0 C 6,9 C 0,0 km/h (0 Bft)
29.08.2013 03:35 7,0 C 92 % 1022,2 hPa 0,0 l/m 0,0 km/h (0 Bft) N-NO 22 5,8 C 6,7 C 0,0 km/h (0 Bft)
29.08.2013 03:40 6,9 C 92 % 1022,2 hPa 0,0 l/m 0,0 km/h (0 Bft) W 270 5,7 C 6,7 C 0,0 km/h (0 Bft)
29.08.2013 03:45 6,8 C 92 % 1022,2 hPa 0,0 l/m 0,0 km/h (0 Bft) W-SW 247 5,6 C 6,7 C 0,0 km/h (0 Bft)
29.08.2013 03:50 6,8 C 92 % 1022,2 hPa 0,0 l/m 0,0 km/h (0 Bft) S-SW 202 5,6 C 6,7 C 2,3 km/h (1 Bft)
29.08.2013 03:55 7,0 C 92 % 1022,2 hPa 0,0 l/m 0,3 km/h (0 Bft) SW 225 5,8 C 6,9 C 0,0 km/h (0 Bft)
29.08.2013 04:00 7,2 C 92 % 1022,2 hPa 0,0 l/m 0,3 km/h (0 Bft) N 360 6,0 C 7,0 C 0,0 km/h (0 Bft)
29.08.2013 04:05 7,1 C 92 % 1022,2 hPa 0,0 l/m 0,0 km/h (0 Bft) N-NW 337 5,9 C 7,1 C 0,0 km/h (0 Bft)
29.08.2013 04:10 7,1 C 92 % 1022,2 hPa 0,0 l/m 0,2 km/h (0 Bft) S 180 5,9 C 7,1 C 0,0 km/h (0 Bft)
29.08.2013 04:15 7,1 C 92 % 1022,2 hPa 0,0 l/m 0,2 km/h (0 Bft) W-SW 247 5,9 C 7,1 C 0,0 km/h (0 Bft)
29.08.2013 04:20 6,8 C 92 % 1022,3 hPa 0,0 l/m 0,2 km/h (0 Bft) W-SW 247 5,6 C 6,9 C 0,0 km/h (0 Bft)
29.08.2013 04:25 6,8 C 92 % 1022,3 hPa 0,0 l/m 0,0 km/h (0 Bft) W-NW 292 5,6 C 6,6 C 0,0 km/h (0 Bft)
29.08.2013 04:30 7,0 C 92 % 1022,3 hPa 0,0 l/m 0,2 km/h (0 Bft) O-NO 67 5,8 C 6,6 C 3,1 km/h (1 Bft)
29.08.2013 04:35 7,0 C 92 % 1022,3 hPa 0,0 l/m 0,2 km/h (0 Bft) S 180 5,8 C 6,7 C 0,0 km/h (0 Bft)
29.08.2013 04:40 6,9 C 92 % 1022,2 hPa 0,0 l/m 0,2 km/h (0 Bft) NO 45 5,7 C 6,7 C 0,0 km/h (0 Bft)
29.08.2013 04:45 6,9 C 92 % 1022,2 hPa 0,0 l/m 0,0 km/h (0 Bft) N 360 5,7 C 6,6 C 0,0 km/h (0 Bft)
29.08.2013 04:50 7,0 C 92 % 1022,2 hPa 0,0 l/m 0,0 km/h (0 Bft) N 360 5,8 C 6,6 C 0,0 km/h (0 Bft)
29.08.2013 04:55 7,0 C 92 % 1022,2 hPa 0,0 l/m 0,0 km/h (0 Bft) NO 45 5,8 C 6,6 C 0,0 km/h (0 Bft)
29.08.2013 05:00 6,8 C 93 % 1022,2 hPa 0,0 l/m 0,0 km/h (0 Bft) W-SW 247 5,7 C 6,7 C 0,0 km/h (0 Bft)
29.08.2013 05:05 6,9 C 93 % 1022,2 hPa 0,0 l/m 0,0 km/h (0 Bft) N-NW 337 5,8 C 6,7 C 0,0 km/h (0 Bft)
29.08.2013 05:10 6,9 C 93 % 1022,2 hPa 0,0 l/m 0,2 km/h (0 Bft) O 90 5,8 C 6,6 C 2,4 km/h (1 Bft)
29.08.2013 05:15 6,8 C 93 % 1022,2 hPa 0,0 l/m 0,3 km/h (0 Bft) W-SW 247 5,7 C 6,6 C 0,0 km/h (0 Bft)
29.08.2013 05:20 6,6 C 93 % 1022,3 hPa 0,0 l/m 0,2 km/h (0 Bft) N-NW 337 5,6 C 6,6 C 0,0 km/h (0 Bft)
29.08.2013 05:25 6,5 C 93 % 1022,3 hPa 0,0 l/m 0,0 km/h (0 Bft) N 360 5,5 C 6,3 C 0,0 km/h (0 Bft)
29.08.2013 05:30 6,4 C 93 % 1022,3 hPa 0,0 l/m 0,0 km/h (0 Bft) N 360 5,4 C 6,3 C 0,0 km/h (0 Bft)
29.08.2013 05:35 6,4 C 93 % 1022,3 hPa 0,0 l/m 0,2 km/h (0 Bft) N-NW 337 5,4 C 6,3 C 0,0 km/h (0 Bft)
29.08.2013 05:40 6,2 C 93 % 1022,2 hPa 0,0 l/m 0,2 km/h (0 Bft) W-NW 292 5,2 C 6,2 C 0,0 km/h (0 Bft)
29.08.2013 05:45 6,2 C 93 % 1022,2 hPa 0,0 l/m 0,0 km/h (0 Bft) O 90 5,2 C 6,0 C 0,0 km/h (0 Bft)
29.08.2013 05:50 6,1 C 92 % 1022,2 hPa 0,0 l/m 0,0 km/h (0 Bft) O 90 4,9 C 6,0 C 0,0 km/h (0 Bft)
29.08.2013 05:55 6,2 C 93 % 1022,2 hPa 0,0 l/m 0,0 km/h (0 Bft) N 360 5,2 C 6,0 C 0,0 km/h (0 Bft)
29.08.2013 06:00 6,1 C 93 % 1022,4 hPa 0,0 l/m 0,0 km/h (0 Bft) N 360 5,1 C 6,0 C 0,0 km/h (0 Bft)
29.08.2013 06:05 5,9 C 94 % 1022,4 hPa 0,0 l/m 0,0 km/h (0 Bft) W-SW 247 5,0 C 6,0 C 0,0 km/h (0 Bft)
29.08.2013 06:10 6,0 C 93 % 1022,4 hPa 0,0 l/m 0,0 km/h (0 Bft) W-SW 247 5,0 C 5,9 C 0,0 km/h (0 Bft)
29.08.2013 06:15 6,7 C 93 % 1022,4 hPa 0,0 l/m 0,5 km/h (0 Bft) O 90 5,6 C 6,1 C 2,6 km/h (1 Bft)
29.08.2013 06:20 6,8 C 93 % 1022,4 hPa 0,0 l/m 0,6 km/h (0 Bft) O 90 5,7 C 6,3 C 0,0 km/h (0 Bft)
29.08.2013 06:25 6,8 C 93 % 1022,4 hPa 0,0 l/m 0,6 km/h (0 Bft) O-SO 112 5,7 C 6,6 C 1,8 km/h (1 Bft)
29.08.2013 06:30 6,8 C 93 % 1022,4 hPa 0,0 l/m 0,5 km/h (0 Bft) O 90 5,7 C 6,6 C 1,8 km/h (1 Bft)
29.08.2013 06:35 7,0 C 93 % 1022,4 hPa 0,0 l/m 1,8 km/h (1 Bft) O-SO 112 5,9 C 6,8 C 3,1 km/h (1 Bft)
29.08.2013 06:40 7,0 C 93 % 1022,5 hPa 0,0 l/m 1,9 km/h (1 Bft) O-SO 112 5,9 C 6,9 C 1,8 km/h (1 Bft)
29.08.2013 06:45 7,0 C 93 % 1022,5 hPa 0,0 l/m 0,8 km/h (0 Bft) O-SO 112 5,9 C 6,9 C 0,0 km/h (0 Bft)
29.08.2013 06:50 6,9 C 93 % 1022,5 hPa 0,0 l/m 0,3 km/h (0 Bft) S-SW 202 5,8 C 7,0 C 1,8 km/h (1 Bft)
29.08.2013 06:55 7,0 C 93 % 1022,5 hPa 0,0 l/m 0,2 km/h (0 Bft) S 180 5,9 C 7,0 C 0,0 km/h (0 Bft)
29.08.2013 07:00 7,0 C 93 % 1022,6 hPa 0,0 l/m 0,2 km/h (0 Bft) S 180 5,9 C 6,9 C 0,0 km/h (0 Bft)
29.08.2013 07:05 6,9 C 93 % 1022,6 hPa 0,0 l/m 0,0 km/h (0 Bft) W-SW 247 5,8 C 7,1 C 0,0 km/h (0 Bft)
29.08.2013 07:10 7,0 C 93 % 1022,6 hPa 0,0 l/m 0,0 km/h (0 Bft) W 270 5,9 C 7,5 C 0,0 km/h (0 Bft)
29.08.2013 07:15 7,1 C 93 % 1022,6 hPa 0,0 l/m 0,2 km/h (0 Bft) O 90 6,0 C 8,0 C 2,3 km/h (1 Bft)
29.08.2013 07:20 7,2 C 93 % 1022,6 hPa 0,0 l/m 0,3 km/h (0 Bft) S-SW 202 6,1 C 8,2 C 0,0 km/h (0 Bft)
29.08.2013 07:25 7,3 C 93 % 1022,6 hPa 0,0 l/m 0,2 km/h (0 Bft) S 180 6,2 C 8,7 C 0,0 km/h (0 Bft)
29.08.2013 07:30 7,3 C 93 % 1022,6 hPa 0,0 l/m 0,2 km/h (0 Bft) NO 45 6,2 C 9,0 C 0,0 km/h (0 Bft)
29.08.2013 07:35 7,4 C 93 % 1022,6 hPa 0,0 l/m 0,0 km/h (0 Bft) NO 45 6,3 C 9,6 C 0,0 km/h (0 Bft)
29.08.2013 07:40 7,5 C 93 % 1022,9 hPa 0,0 l/m 0,0 km/h (0 Bft) NW 315 6,4 C 9,9 C 0,0 km/h (0 Bft)
29.08.2013 07:45 7,6 C 93 % 1022,9 hPa 0,0 l/m 0,0 km/h (0 Bft) N 360 6,5 C 10,3 C 0,0 km/h (0 Bft)
29.08.2013 07:50 9,4 C 93 % 1022,9 hPa 0,0 l/m 0,0 km/h (0 Bft) NO 45 8,3 C 10,6 C 0,0 km/h (0 Bft)
29.08.2013 07:55 10,3 C 92 % 1022,9 hPa 0,0 l/m 0,0 km/h (0 Bft) O-NO 67 9,1 C 11,2 C 0,0 km/h (0 Bft)
29.08.2013 08:00 10,7 C 91 % 1022,9 hPa 0,0 l/m 0,0 km/h (0 Bft) N 360 9,3 C 11,6 C 0,0 km/h (0 Bft)
29.08.2013 08:05 11,7 C 90 % 1022,9 hPa 0,0 l/m 0,0 km/h (0 Bft) O-NO 67 10,1 C 12,3 C 0,0 km/h (0 Bft)
29.08.2013 08:10 12,3 C 89 % 1022,9 hPa 0,0 l/m 0,0 km/h (0 Bft) O-NO 67 10,5 C 12,9 C 0,0 km/h (0 Bft)
29.08.2013 08:15 12,9 C 88 % 1022,9 hPa 0,0 l/m 0,0 km/h (0 Bft) O 90 11,0 C 14,1 C 0,0 km/h (0 Bft)
29.08.2013 08:20 13,4 C 86 % 1023,1 hPa 0,0 l/m 0,0 km/h (0 Bft) O 90 11,1 C 14,6 C 0,0 km/h (0 Bft)
29.08.2013 08:25 13,7 C 84 % 1023,1 hPa 0,0 l/m 0,0 km/h (0 Bft) O 90 11,0 C 15,2 C 0,0 km/h (0 Bft)
29.08.2013 08:30 14,3 C 82 % 1023,1 hPa 0,0 l/m 0,0 km/h (0 Bft) NO 45 11,3 C 15,3 C 0,0 km/h (0 Bft)
29.08.2013 08:35 14,3 C 77 % 1023,1 hPa 0,0 l/m 0,0 km/h (0 Bft) N-NO 22 10,3 C 15,6 C 0,0 km/h (0 Bft)
29.08.2013 08:40 15,0 C 76 % 1023,2 hPa 0,0 l/m 0,0 km/h (0 Bft) O 90 10,8 C 15,9 C 0,0 km/h (0 Bft)
29.08.2013 08:45 15,5 C 75 % 1023,2 hPa 0,0 l/m 0,0 km/h (0 Bft) W-SW 247 11,1 C 16,8 C 0,0 km/h (0 Bft)
29.08.2013 08:50 15,9 C 74 % 1023,2 hPa 0,0 l/m 0,0 km/h (0 Bft) N-NW 337 11,3 C 17,4 C 0,0 km/h (0 Bft)
29.08.2013 08:55 16,4 C 70 % 1023,2 hPa 0,0 l/m 0,0 km/h (0 Bft) O 90 10,9 C 18,0 C 0,0 km/h (0 Bft)
29.08.2013 09:00 17,2 C 70 % 1023,2 hPa 0,0 l/m 0,0 km/h (0 Bft) O 90 11,7 C 18,5 C 0,0 km/h (0 Bft)
29.08.2013 09:05 17,4 C 68 % 1023,2 hPa 0,0 l/m 0,0 km/h (0 Bft) O-SO 112 11,4 C 19,5 C 0,0 km/h (0 Bft)
29.08.2013 09:10 17,1 C 66 % 1023,2 hPa 0,0 l/m 0,0 km/h (0 Bft) W-SW 247 10,7 C 19,8 C 0,0 km/h (0 Bft)
29.08.2013 09:15 17,7 C 66 % 1023,2 hPa 0,0 l/m 0,0 km/h (0 Bft) S-SW 202 11,3 C 20,0 C 0,0 km/h (0 Bft)
29.08.2013 09:20 18,4 C 65 % 1023,6 hPa 0,0 l/m 0,2 km/h (0 Bft) S-SW 202 11,7 C 20,1 C 1,8 km/h (1 Bft)
29.08.2013 09:25 18,5 C 62 % 1023,6 hPa 0,0 l/m 0,2 km/h (0 Bft) N 360 11,1 C 20,3 C 0,0 km/h (0 Bft)
29.08.2013 09:30 18,5 C 61 % 1023,6 hPa 0,0 l/m 0,3 km/h (0 Bft) W-NW 292 10,8 C 20,7 C 2,4 km/h (1 Bft)
29.08.2013 09:35 19,1 C 60 % 1023,6 hPa 0,0 l/m 1,1 km/h (1 Bft) W-SW 247 11,1 C 20,4 C 2,1 km/h (1 Bft)
29.08.2013 09:40 19,4 C 59 % 1023,7 hPa 0,0 l/m 1,4 km/h (1 Bft) O-NO 67 11,2 C 20,3 C 0,0 km/h (0 Bft)
29.08.2013 09:45 18,8 C 58 % 1023,7 hPa 0,0 l/m 1,8 km/h (1 Bft) W-NW 292 10,4 C 20,1 C 5,8 km/h (2 Bft)
29.08.2013 09:50 19,3 C 56 % 1023,7 hPa 0,0 l/m 2,1 km/h (1 Bft) N-NW 337 10,3 C 20,1 C 3,4 km/h (1 Bft)
29.08.2013 09:55 19,7 C 55 % 1023,7 hPa 0,0 l/m 2,6 km/h (1 Bft) N 360 10,4 C 20,1 C 5,1 km/h (1 Bft)
29.08.2013 10:00 19,3 C 55 % 1023,9 hPa 0,0 l/m 2,6 km/h (1 Bft) W-SW 247 10,0 C 20,1 C 0,0 km/h (0 Bft)
29.08.2013 10:05 19,6 C 53 % 1023,9 hPa 0,0 l/m 2,7 km/h (1 Bft) W-NW 292 9,8 C 20,2 C 6,0 km/h (2 Bft)
29.08.2013 10:10 19,5 C 52 % 1023,9 hPa 0,0 l/m 2,4 km/h (1 Bft) N-NW 337 9,4 C 20,3 C 2,7 km/h (1 Bft)
29.08.2013 10:15 19,3 C 51 % 1023,9 hPa 0,0 l/m 2,1 km/h (1 Bft) NW 315 8,9 C 20,9 C 7,7 km/h (2 Bft)
29.08.2013 10:20 19,5 C 52 % 1023,9 hPa 0,0 l/m 2,3 km/h (1 Bft) N-NO 22 9,4 C 20,9 C 0,0 km/h (0 Bft)
29.08.2013 10:25 19,7 C 52 % 1023,9 hPa 0,0 l/m 3,4 km/h (1 Bft) N-NW 337 9,6 C 20,7 C 7,9 km/h (2 Bft)
29.08.2013 10:30 19,4 C 52 % 1023,9 hPa 0,0 l/m 2,7 km/h (1 Bft) S-SW 202 9,3 C 20,9 C 3,9 km/h (1 Bft)
29.08.2013 10:35 19,0 C 50 % 1023,9 hPa 0,0 l/m 4,0 km/h (1 Bft) N 360 8,3 C 20,7 C 10,1 km/h (2 Bft)
29.08.2013 10:40 19,2 C 51 % 1024,3 hPa 0,0 l/m 5,3 km/h (1 Bft) W-NW 292 8,8 C 20,3 C 6,4 km/h (2 Bft)
29.08.2013 10:45 19,4 C 48 % 1024,3 hPa 0,0 l/m 4,8 km/h (1 Bft) N-NO 22 8,1 C 20,0 C 5,5 km/h (1 Bft)
29.08.2013 10:50 19,8 C 51 % 1024,3 hPa 0,0 l/m 4,0 km/h (1 Bft) W-NW 292 9,4 C 20,1 C 3,5 km/h (1 Bft)
29.08.2013 10:55 19,9 C 49 % 1024,3 hPa 0,0 l/m 3,5 km/h (1 Bft) NW 315 8,9 C 19,8 C 3,7 km/h (1 Bft)
29.08.2013 11:00 20,0 C 49 % 1024,5 hPa 0,0 l/m 3,9 km/h (1 Bft) N-NO 22 9,0 C 19,5 C 4,8 km/h (1 Bft)
29.08.2013 11:05 19,5 C 49 % 1024,5 hPa 0,0 l/m 4,8 km/h (1 Bft) W-NW 292 8,5 C 19,3 C 6,8 km/h (2 Bft)
29.08.2013 11:10 19,7 C 50 % 1024,5 hPa 0,0 l/m 4,5 km/h (1 Bft) N 360 9,0 C 19,0 C 1,8 km/h (1 Bft)
29.08.2013 11:15 20,2 C 49 % 1024,5 hPa 0,0 l/m 3,7 km/h (1 Bft) W-SW 247 9,1 C 19,3 C 5,6 km/h (1 Bft)
29.08.2013 11:20 19,8 C 48 % 1024,7 hPa 0,0 l/m 3,1 km/h (1 Bft) W 270 8,5 C 19,2 C 2,1 km/h (1 Bft)
29.08.2013 11:25 20,6 C 48 % 1024,7 hPa 0,0 l/m 4,0 km/h (1 Bft) W 270 9,2 C 18,9 C 4,5 km/h (1 Bft)
29.08.2013 11:30 21,0 C 47 % 1024,7 hPa 0,0 l/m 3,9 km/h (1 Bft) N 360 9,3 C 18,8 C 0,0 km/h (0 Bft)
29.08.2013 11:35 20,2 C 46 % 1024,7 hPa 0,0 l/m 4,0 km/h (1 Bft) O 90 8,2 C 19,3 C 9,5 km/h (2 Bft)
29.08.2013 11:40 21,3 C 48 % 1024,8 hPa 0,0 l/m 4,3 km/h (1 Bft) W 270 9,8 C 19,6 C 3,4 km/h (1 Bft)
29.08.2013 11:45 21,5 C 45 % 1024,8 hPa 0,0 l/m 4,3 km/h (1 Bft) N-NW 337 9,1 C 20,7 C 6,8 km/h (2 Bft)
29.08.2013 11:50 21,2 C 45 % 1024,8 hPa 0,0 l/m 4,3 km/h (1 Bft) W 270 8,8 C 21,0 C 6,9 km/h (2 Bft)
29.08.2013 11:55 21,2 C 44 % 1024,8 hPa 0,0 l/m 4,3 km/h (1 Bft) N 360 8,5 C 21,7 C 4,3 km/h (1 Bft)
29.08.2013 12:00 21,4 C 45 % 1024,6 hPa 0,0 l/m 3,9 km/h (1 Bft) N-NW 337 9,0 C 22,1 C 5,5 km/h (1 Bft)
29.08.2013 12:05 21,6 C 46 % 1024,6 hPa 0,0 l/m 3,9 km/h (1 Bft) W-NW 292 9,5 C 22,3 C 4,3 km/h (1 Bft)
29.08.2013 12:10 21,7 C 47 % 1024,6 hPa 0,0 l/m 4,0 km/h (1 Bft) N-NW 337 9,9 C 22,5 C 6,1 km/h (2 Bft)
29.08.2013 12:15 21,5 C 47 % 1024,6 hPa 0,0 l/m 4,8 km/h (1 Bft) W-NW 292 9,7 C 22,3 C 11,9 km/h (2 Bft)
29.08.2013 12:20 21,0 C 45 % 1024,6 hPa 0,0 l/m 5,0 km/h (1 Bft) NW 315 8,6 C 22,3 C 6,4 km/h (2 Bft)
29.08.2013 12:25 21,2 C 44 % 1024,6 hPa 0,0 l/m 4,8 km/h (1 Bft) NW 315 8,5 C 22,1 C 5,3 km/h (1 Bft)
29.08.2013 12:30 21,0 C 43 % 1024,6 hPa 0,0 l/m 4,8 km/h (1 Bft) N-NW 337 7,9 C 22,2 C 3,5 km/h (1 Bft)
29.08.2013 12:35 21,2 C 44 % 1024,6 hPa 0,0 l/m 4,8 km/h (1 Bft) N-NO 22 8,5 C 22,2 C 3,4 km/h (1 Bft)
29.08.2013 12:40 22,1 C 45 % 1024,6 hPa 0,0 l/m 3,7 km/h (1 Bft) NW 315 9,6 C 22,7 C 3,4 km/h (1 Bft)
29.08.2013 12:45 21,4 C 44 % 1024,6 hPa 0,0 l/m 3,2 km/h (1 Bft) NW 315 8,6 C 23,3 C 4,7 km/h (1 Bft)
29.08.2013 12:50 21,5 C 44 % 1024,6 hPa 0,0 l/m 4,3 km/h (1 Bft) N-NO 22 8,7 C 23,2 C 12,1 km/h (2 Bft)
29.08.2013 12:55 21,5 C 46 % 1024,6 hPa 0,0 l/m 5,3 km/h (1 Bft) S-SO 157 9,4 C 23,0 C 5,6 km/h (1 Bft)
29.08.2013 13:00 21,8 C 45 % 1024,6 hPa 0,0 l/m 5,5 km/h (1 Bft) W-SW 247 9,3 C 23,0 C 6,4 km/h (2 Bft)
29.08.2013 13:05 21,6 C 46 % 1024,6 hPa 0,0 l/m 4,5 km/h (1 Bft) W-NW 292 9,5 C 23,3 C 5,0 km/h (1 Bft)
29.08.2013 13:10 21,0 C 48 % 1024,6 hPa 0,0 l/m 4,0 km/h (1 Bft) NW 315 9,6 C 22,8 C 3,7 km/h (1 Bft)
29.08.2013 13:15 19,9 C 52 % 1024,6 hPa 0,0 l/m 5,5 km/h (1 Bft) W-NW 292 9,7 C 22,0 C 12,6 km/h (3 Bft)
29.08.2013 13:20 19,5 C 53 % 1024,8 hPa 0,0 l/m 5,0 km/h (1 Bft) NW 315 9,7 C 21,2 C 5,8 km/h (2 Bft)
29.08.2013 13:25 20,3 C 52 % 1024,8 hPa 0,0 l/m 4,2 km/h (1 Bft) N 360 10,1 C 21,4 C 5,5 km/h (1 Bft)
29.08.2013 13:30 20,4 C 51 % 1024,8 hPa 0,0 l/m 4,2 km/h (1 Bft) NO 45 9,9 C 22,0 C 6,3 km/h (2 Bft)
29.08.2013 13:35 20,7 C 49 % 1024,8 hPa 0,0 l/m 4,0 km/h (1 Bft) N-NW 337 9,6 C 23,0 C 5,8 km/h (2 Bft)
29.08.2013 13:40 20,5 C 50 % 1024,6 hPa 0,0 l/m 4,7 km/h (1 Bft) NW 315 9,7 C 23,2 C 7,7 km/h (2 Bft)
29.08.2013 13:45 20,1 C 51 % 1024,6 hPa 0,0 l/m 4,2 km/h (1 Bft) N-NO 22 9,6 C 22,8 C 6,1 km/h (2 Bft)
29.08.2013 13:50 20,7 C 50 % 1024,6 hPa 0,0 l/m 3,5 km/h (1 Bft) W-SW 247 9,9 C 23,2 C 0,0 km/h (0 Bft)
29.08.2013 13:55 20,4 C 50 % 1024,6 hPa 0,0 l/m 3,9 km/h (1 Bft) NO 45 9,6 C 23,4 C 4,2 km/h (1 Bft)
29.08.2013 14:00 19,4 C 52 % 1024,5 hPa 0,0 l/m 3,9 km/h (1 Bft) W 270 9,3 C 22,2 C 5,5 km/h (1 Bft)
29.08.2013 14:05 20,0 C 52 % 1024,5 hPa 0,0 l/m 4,7 km/h (1 Bft) W-NW 292 9,8 C 21,8 C 5,6 km/h (1 Bft)
29.08.2013 14:10 20,1 C 52 % 1024,5 hPa 0,0 l/m 4,3 km/h (1 Bft) N-NW 337 9,9 C 21,7 C 2,7 km/h (1 Bft)
29.08.2013 14:15 21,1 C 48 % 1024,5 hPa 0,0 l/m 4,7 km/h (1 Bft) N 360 9,7 C 22,7 C 4,7 km/h (1 Bft)
29.08.2013 14:20 21,6 C 48 % 1024,4 hPa 0,0 l/m 3,9 km/h (1 Bft) S-SO 157 10,1 C 23,5 C 0,0 km/h (0 Bft)
29.08.2013 14:25 20,9 C 48 % 1024,4 hPa 0,0 l/m 3,2 km/h (1 Bft) N-NW 337 9,5 C 24,2 C 7,1 km/h (2 Bft)
29.08.2013 14:30 20,6 C 48 % 1024,4 hPa 0,0 l/m 3,1 km/h (1 Bft) NW 315 9,2 C 23,3 C 3,2 km/h (1 Bft)
29.08.2013 14:35 21,8 C 48 % 1024,4 hPa 0,0 l/m 3,2 km/h (1 Bft) W 270 10,3 C 23,8 C 1,6 km/h (1 Bft)
29.08.2013 14:40 22,0 C 46 % 1024,4 hPa 0,0 l/m 2,4 km/h (1 Bft) NO 45 9,8 C 24,4 C 5,0 km/h (1 Bft)
29.08.2013 14:45 20,2 C 51 % 1024,4 hPa 0,0 l/m 2,9 km/h (1 Bft) W 270 9,7 C 24,2 C 5,0 km/h (1 Bft)
29.08.2013 14:50 21,3 C 47 % 1024,4 hPa 0,0 l/m 4,2 km/h (1 Bft) NW 315 9,5 C 23,4 C 5,0 km/h (1 Bft)
29.08.2013 14:55 22,1 C 47 % 1024,4 hPa 0,0 l/m 4,3 km/h (1 Bft) N-NW 337 10,3 C 24,0 C 7,6 km/h (2 Bft)
29.08.2013 15:00 21,7 C 46 % 1024,2 hPa 0,0 l/m 4,8 km/h (1 Bft) N 360 9,6 C 24,4 C 10,8 km/h (2 Bft)
29.08.2013 15:05 20,5 C 48 % 1024,2 hPa 0,0 l/m 5,6 km/h (1 Bft) N 360 9,1 C 24,1 C 12,7 km/h (3 Bft)
29.08.2013 15:10 20,5 C 49 % 1024,2 hPa 0,0 l/m 5,5 km/h (1 Bft) O-SO 112 9,4 C 23,5 C 8,4 km/h (2 Bft)
29.08.2013 15:15 19,8 C 52 % 1024,2 hPa 0,0 l/m 4,0 km/h (1 Bft) W-NW 292 9,7 C 22,1 C 3,1 km/h (1 Bft)
29.08.2013 15:20 19,4 C 54 % 1024,2 hPa 0,0 l/m 3,7 km/h (1 Bft) N-NO 22 9,8 C 21,7 C 1,8 km/h (1 Bft)
29.08.2013 15:25 19,6 C 52 % 1024,2 hPa 0,0 l/m 3,7 km/h (1 Bft) W-NW 292 9,5 C 21,6 C 5,0 km/h (1 Bft)
29.08.2013 15:30 20,5 C 50 % 1024,2 hPa 0,0 l/m 3,5 km/h (1 Bft) W-NW 292 9,7 C 22,2 C 3,9 km/h (1 Bft)
29.08.2013 15:35 20,0 C 49 % 1024,2 hPa 0,0 l/m 4,3 km/h (1 Bft) N-NW 337 9,0 C 23,1 C 7,4 km/h (2 Bft)
29.08.2013 15:40 20,0 C 50 % 1024,2 hPa 0,0 l/m 4,3 km/h (1 Bft) W-NW 292 9,3 C 22,6 C 3,7 km/h (1 Bft)
29.08.2013 15:45 20,3 C 49 % 1024,2 hPa 0,0 l/m 4,7 km/h (1 Bft) W-SW 247 9,2 C 22,5 C 2,9 km/h (1 Bft)
29.08.2013 15:50 20,0 C 49 % 1024,2 hPa 0,0 l/m 4,7 km/h (1 Bft) N-NW 337 9,0 C 23,1 C 7,7 km/h (2 Bft)
29.08.2013 15:55 19,6 C 49 % 1024,2 hPa 0,0 l/m 3,9 km/h (1 Bft) S-SO 157 8,6 C 22,8 C 3,1 km/h (1 Bft)
29.08.2013 16:00 20,5 C 48 % 1024,1 hPa 0,0 l/m 3,5 km/h (1 Bft) O-NO 67 9,1 C 23,1 C 4,0 km/h (1 Bft)
29.08.2013 16:05 19,9 C 50 % 1024,1 hPa 0,0 l/m 4,3 km/h (1 Bft) N 360 9,2 C 23,1 C 5,1 km/h (1 Bft)
29.08.2013 16:10 19,4 C 51 % 1024,1 hPa 0,0 l/m 5,8 km/h (2 Bft) W-NW 292 9,0 C 22,2 C 7,6 km/h (2 Bft)
29.08.2013 16:15 19,1 C 52 % 1024,1 hPa 0,0 l/m 5,0 km/h (1 Bft) N-NW 337 9,0 C 21,3 C 7,9 km/h (2 Bft)
29.08.2013 16:20 18,9 C 54 % 1024,2 hPa 0,0 l/m 4,2 km/h (1 Bft) W 270 9,4 C 20,8 C 6,3 km/h (2 Bft)
29.08.2013 16:25 18,6 C 55 % 1024,2 hPa 0,0 l/m 3,4 km/h (1 Bft) NW 315 9,4 C 20,5 C 3,9 km/h (1 Bft)
29.08.2013 16:30 18,5 C 56 % 1024,2 hPa 0,0 l/m 2,4 km/h (1 Bft) N 360 9,6 C 20,3 C 2,6 km/h (1 Bft)
29.08.2013 16:35 18,5 C 59 % 1024,2 hPa 0,0 l/m 1,8 km/h (1 Bft) N 360 10,3 C 20,3 C 3,1 km/h (1 Bft)
29.08.2013 16:40 18,5 C 57 % 1023,8 hPa 0,0 l/m 1,9 km/h (1 Bft) N-NO 22 9,8 C 20,5 C 0,0 km/h (0 Bft)
29.08.2013 16:45 18,7 C 57 % 1023,8 hPa 0,0 l/m 1,6 km/h (1 Bft) N-NW 337 10,0 C 21,0 C 4,0 km/h (1 Bft)
29.08.2013 16:50 18,7 C 57 % 1023,8 hPa 0,0 l/m 1,1 km/h (1 Bft) O 90 10,0 C 21,3 C 1,6 km/h (1 Bft)
29.08.2013 16:55 19,2 C 57 % 1023,8 hPa 0,0 l/m 1,4 km/h (1 Bft) W 270 10,5 C 22,9 C 3,4 km/h (1 Bft)
29.08.2013 17:00 18,9 C 55 % 1023,9 hPa 0,0 l/m 1,8 km/h (1 Bft) NO 45 9,7 C 24,3 C 1,9 km/h (1 Bft)
29.08.2013 17:05 18,8 C 54 % 1023,9 hPa 0,0 l/m 3,1 km/h (1 Bft) N-NO 22 9,3 C 25,0 C 2,4 km/h (1 Bft)
29.08.2013 17:10 18,8 C 56 % 1023,9 hPa 0,0 l/m 2,9 km/h (1 Bft) N-NW 337 9,8 C 25,2 C 3,5 km/h (1 Bft)
29.08.2013 17:15 18,6 C 55 % 1023,9 hPa 0,0 l/m 3,7 km/h (1 Bft) S-SW 202 9,4 C 23,5 C 5,5 km/h (1 Bft)
29.08.2013 17:20 18,4 C 55 % 1023,8 hPa 0,0 l/m 3,2 km/h (1 Bft) W-SW 247 9,2 C 22,0 C 2,9 km/h (1 Bft)
29.08.2013 17:25 18,1 C 57 % 1023,8 hPa 0,0 l/m 1,6 km/h (1 Bft) SO 135 9,4 C 21,1 C 1,8 km/h (1 Bft)
29.08.2013 17:30 17,8 C 58 % 1023,8 hPa 0,0 l/m 0,8 km/h (0 Bft) NO 45 9,4 C 21,0 C 0,0 km/h (0 Bft)
29.08.2013 17:35 17,7 C 59 % 1023,8 hPa 0,0 l/m 0,6 km/h (0 Bft) N-NW 337 9,6 C 22,0 C 2,6 km/h (1 Bft)
29.08.2013 17:40 17,9 C 58 % 1023,9 hPa 0,0 l/m 1,3 km/h (1 Bft) N-NW 337 9,5 C 22,9 C 4,3 km/h (1 Bft)
29.08.2013 17:45 18,0 C 57 % 1023,9 hPa 0,0 l/m 2,4 km/h (1 Bft) N 360 9,4 C 23,9 C 3,4 km/h (1 Bft)
29.08.2013 17:50 18,0 C 57 % 1023,9 hPa 0,0 l/m 2,3 km/h (1 Bft) W-NW 292 9,4 C 24,3 C 5,0 km/h (1 Bft)
29.08.2013 17:55 18,0 C 57 % 1023,9 hPa 0,0 l/m 2,4 km/h (1 Bft) W-NW 292 9,4 C 24,5 C 3,4 km/h (1 Bft)
29.08.2013 18:00 17,9 C 58 % 1024,1 hPa 0,0 l/m 2,4 km/h (1 Bft) N 360 9,5 C 24,5 C 5,0 km/h (1 Bft)
29.08.2013 18:05 17,7 C 58 % 1024,1 hPa 0,0 l/m 2,4 km/h (1 Bft) NO 45 9,3 C 24,5 C 3,9 km/h (1 Bft)
29.08.2013 18:10 17,6 C 60 % 1024,1 hPa 0,0 l/m 2,4 km/h (1 Bft) N 360 9,7 C 24,7 C 3,7 km/h (1 Bft)
29.08.2013 18:15 17,5 C 59 % 1024,1 hPa 0,0 l/m 1,6 km/h (1 Bft) NO 45 9,4 C 24,7 C 0,0 km/h (0 Bft)
29.08.2013 18:20 17,3 C 61 % 1023,5 hPa 0,0 l/m 1,1 km/h (1 Bft) O-NO 67 9,7 C 25,0 C 1,8 km/h (1 Bft)
29.08.2013 18:25 17,3 C 60 % 1023,5 hPa 0,0 l/m 1,4 km/h (1 Bft) NO 45 9,5 C 24,9 C 2,7 km/h (1 Bft)
29.08.2013 18:30 17,0 C 61 % 1023,5 hPa 0,0 l/m 1,6 km/h (1 Bft) N 360 9,4 C 24,9 C 1,9 km/h (1 Bft)
29.08.2013 18:35 16,8 C 62 % 1023,5 hPa 0,0 l/m 1,1 km/h (1 Bft) NO 45 9,5 C 24,4 C 2,9 km/h (1 Bft)
29.08.2013 18:40 16,7 C 62 % 1023,2 hPa 0,0 l/m 1,4 km/h (1 Bft) NO 45 9,4 C 23,9 C 2,1 km/h (1 Bft)
29.08.2013 18:45 16,8 C 61 % 1023,2 hPa 0,0 l/m 1,9 km/h (1 Bft) O-NO 67 9,2 C 23,6 C 3,1 km/h (1 Bft)
29.08.2013 18:50 16,6 C 61 % 1023,2 hPa 0,0 l/m 1,9 km/h (1 Bft) O-NO 67 9,0 C 23,3 C 2,4 km/h (1 Bft)
29.08.2013 18:55 16,5 C 62 % 1023,2 hPa 0,0 l/m 2,3 km/h (1 Bft) O 90 9,2 C 22,7 C 2,3 km/h (1 Bft)
29.08.2013 19:00 16,5 C 62 % 1023,5 hPa 0,0 l/m 2,3 km/h (1 Bft) O 90 9,2 C 22,4 C 2,4 km/h (1 Bft)
29.08.2013 19:05 16,3 C 65 % 1023,5 hPa 0,0 l/m 2,1 km/h (1 Bft) NO 45 9,7 C 21,9 C 2,9 km/h (1 Bft)
29.08.2013 19:10 16,2 C 66 % 1023,5 hPa 0,0 l/m 2,1 km/h (1 Bft) O-NO 67 9,8 C 21,6 C 3,1 km/h (1 Bft)
29.08.2013 19:15 16,0 C 66 % 1023,5 hPa 0,0 l/m 2,7 km/h (1 Bft) O-NO 67 9,7 C 20,9 C 4,3 km/h (1 Bft)
29.08.2013 19:20 15,9 C 67 % 1023,6 hPa 0,0 l/m 3,1 km/h (1 Bft) O 90 9,8 C 20,3 C 2,9 km/h (1 Bft)
29.08.2013 19:25 15,7 C 69 % 1023,6 hPa 0,0 l/m 3,4 km/h (1 Bft) NO 45 10,0 C 19,4 C 4,3 km/h (1 Bft)
29.08.2013 19:30 15,5 C 70 % 1023,6 hPa 0,0 l/m 3,5 km/h (1 Bft) N-NO 22 10,1 C 18,8 C 4,7 km/h (1 Bft)
29.08.2013 19:35 15,1 C 74 % 1023,6 hPa 0,0 l/m 3,9 km/h (1 Bft) O-NO 67 10,5 C 17,8 C 4,2 km/h (1 Bft)
29.08.2013 19:40 15,1 C 74 % 1023,6 hPa 0,0 l/m 3,9 km/h (1 Bft) O-NO 67 10,5 C 17,1 C 4,3 km/h (1 Bft)
29.08.2013 19:45 14,6 C 75 % 1023,6 hPa 0,0 l/m 4,2 km/h (1 Bft) O-NO 67 10,2 C 16,3 C 4,7 km/h (1 Bft)
29.08.2013 19:50 14,2 C 76 % 1023,6 hPa 0,0 l/m 4,2 km/h (1 Bft) O-NO 67 10,0 C 15,7 C 4,2 km/h (1 Bft)
29.08.2013 19:55 13,5 C 77 % 1023,6 hPa 0,0 l/m 3,9 km/h (1 Bft) NO 45 9,5 C 14,6 C 4,2 km/h (1 Bft)
29.08.2013 20:00 13,3 C 77 % 1023,7 hPa 0,0 l/m 3,4 km/h (1 Bft) NO 45 9,4 C 14,0 C 3,2 km/h (1 Bft)
29.08.2013 20:05 13,1 C 78 % 1023,7 hPa 0,0 l/m 2,7 km/h (1 Bft) O-SO 112 9,4 C 13,3 C 2,1 km/h (1 Bft)
29.08.2013 20:10 12,6 C 79 % 1023,7 hPa 0,0 l/m 1,6 km/h (1 Bft) NO 45 9,1 C 12,9 C 0,0 km/h (0 Bft)
29.08.2013 20:15 12,6 C 80 % 1023,7 hPa 0,0 l/m 2,1 km/h (1 Bft) O-SO 112 9,2 C 12,4 C 3,4 km/h (1 Bft)
29.08.2013 20:20 12,6 C 81 % 1023,8 hPa 0,0 l/m 3,2 km/h (1 Bft) O 90 9,4 C 12,3 C 5,5 km/h (1 Bft)
29.08.2013 20:25 12,4 C 82 % 1023,8 hPa 0,0 l/m 3,5 km/h (1 Bft) O-NO 67 9,4 C 12,1 C 4,3 km/h (1 Bft)
29.08.2013 20:30 12,3 C 83 % 1023,8 hPa 0,0 l/m 3,9 km/h (1 Bft) O 90 9,5 C 12,0 C 3,2 km/h (1 Bft)
29.08.2013 20:35 12,2 C 83 % 1023,8 hPa 0,0 l/m 3,5 km/h (1 Bft) NO 45 9,4 C 12,1 C 3,7 km/h (1 Bft)
29.08.2013 20:40 12,1 C 83 % 1024,1 hPa 0,0 l/m 2,7 km/h (1 Bft) O-SO 112 9,3 C 11,9 C 3,4 km/h (1 Bft)
29.08.2013 20:45 11,6 C 83 % 1024,1 hPa 0,0 l/m 1,9 km/h (1 Bft) O 90 8,8 C 11,6 C 1,9 km/h (1 Bft)
29.08.2013 20:50 11,5 C 83 % 1024,1 hPa 0,0 l/m 1,1 km/h (1 Bft) O-SO 112 8,7 C 11,4 C 0,0 km/h (0 Bft)
29.08.2013 20:55 11,3 C 83 % 1024,1 hPa 0,0 l/m 0,2 km/h (0 Bft) O-SO 112 8,5 C 11,1 C 0,0 km/h (0 Bft)
29.08.2013 21:00 11,1 C 83 % 1024,1 hPa 0,0 l/m 0,2 km/h (0 Bft) O 90 8,3 C 10,9 C 0,0 km/h (0 Bft)
29.08.2013 21:05 11,1 C 83 % 1024,1 hPa 0,0 l/m 0,2 km/h (0 Bft) O 90 8,3 C 10,7 C 2,3 km/h (1 Bft)
29.08.2013 21:10 11,1 C 84 % 1024,1 hPa 0,0 l/m 0,3 km/h (0 Bft) O 90 8,5 C 10,7 C 2,3 km/h (1 Bft)
29.08.2013 21:15 11,1 C 84 % 1024,1 hPa 0,0 l/m 0,8 km/h (0 Bft) NO 45 8,5 C 10,7 C 1,6 km/h (1 Bft)
29.08.2013 21:20 11,1 C 84 % 1024,1 hPa 0,0 l/m 1,1 km/h (1 Bft) N-NO 22 8,5 C 10,7 C 2,3 km/h (1 Bft)
29.08.2013 21:25 10,9 C 84 % 1024,1 hPa 0,0 l/m 0,8 km/h (0 Bft) O 90 8,3 C 10,9 C 0,0 km/h (0 Bft)
29.08.2013 21:30 10,8 C 84 % 1024,1 hPa 0,0 l/m 0,3 km/h (0 Bft) O 90 8,2 C 10,7 C 0,0 km/h (0 Bft)
29.08.2013 21:35 10,5 C 85 % 1024,1 hPa 0,0 l/m 0,0 km/h (0 Bft) N-NO 22 8,1 C 10,4 C 0,0 km/h (0 Bft)
29.08.2013 21:40 10,4 C 85 % 1024,2 hPa 0,0 l/m 0,0 km/h (0 Bft) O 90 8,0 C 10,3 C 0,0 km/h (0 Bft)
29.08.2013 21:45 10,4 C 85 % 1024,2 hPa 0,0 l/m 0,0 km/h (0 Bft) O-SO 112 8,0 C 10,1 C 0,0 km/h (0 Bft)
29.08.2013 21:50 10,1 C 85 % 1024,2 hPa 0,0 l/m 0,0 km/h (0 Bft) NO 45 7,7 C 10,0 C 0,0 km/h (0 Bft)
29.08.2013 21:55 10,0 C 85 % 1024,2 hPa 0,0 l/m 0,0 km/h (0 Bft) N-NO 22 7,6 C 9,7 C 0,0 km/h (0 Bft)
29.08.2013 22:00 9,8 C 86 % 1024,2 hPa 0,0 l/m 0,0 km/h (0 Bft) NO 45 7,6 C 9,6 C 0,0 km/h (0 Bft)
29.08.2013 22:05 9,8 C 86 % 1024,2 hPa 0,0 l/m 0,0 km/h (0 Bft) O-NO 67 7,6 C 9,4 C 0,0 km/h (0 Bft)
29.08.2013 22:10 9,9 C 86 % 1024,2 hPa 0,0 l/m 0,0 km/h (0 Bft) O-SO 112 7,7 C 9,4 C 0,0 km/h (0 Bft)
29.08.2013 22:15 9,9 C 87 % 1024,2 hPa 0,0 l/m 0,2 km/h (0 Bft) O-SO 112 7,8 C 9,7 C 0,0 km/h (0 Bft)
29.08.2013 22:20 9,9 C 87 % 1024,1 hPa 0,0 l/m 0,2 km/h (0 Bft) O 90 7,8 C 9,6 C 0,0 km/h (0 Bft)
29.08.2013 22:25 9,9 C 87 % 1024,1 hPa 0,0 l/m 0,0 km/h (0 Bft) S 180 7,8 C 9,6 C 0,0 km/h (0 Bft)
29.08.2013 22:30 9,6 C 87 % 1024,1 hPa 0,0 l/m 0,0 km/h (0 Bft) S-SW 202 7,5 C 9,6 C 0,0 km/h (0 Bft)
29.08.2013 22:35 9,5 C 87 % 1024,1 hPa 0,0 l/m 0,0 km/h (0 Bft) SW 225 7,4 C 9,4 C 0,0 km/h (0 Bft)
29.08.2013 22:40 9,4 C 87 % 1024,0 hPa 0,0 l/m 0,0 km/h (0 Bft) S 180 7,3 C 9,3 C 0,0 km/h (0 Bft)
29.08.2013 22:45 9,4 C 87 % 1024,0 hPa 0,0 l/m 0,0 km/h (0 Bft) S-SW 202 7,3 C 9,3 C 0,0 km/h (0 Bft)
29.08.2013 22:50 9,4 C 88 % 1024,0 hPa 0,0 l/m 0,0 km/h (0 Bft) S-SW 202 7,5 C 9,3 C 0,0 km/h (0 Bft)
29.08.2013 22:55 9,5 C 88 % 1024,0 hPa 0,0 l/m 0,0 km/h (0 Bft) S 180 7,6 C 9,3 C 0,0 km/h (0 Bft)
29.08.2013 23:00 9,3 C 88 % 1024,0 hPa 0,0 l/m 0,0 km/h (0 Bft) O-SO 112 7,4 C 9,2 C 0,0 km/h (0 Bft)
29.08.2013 23:05 9,2 C 88 % 1024,0 hPa 0,0 l/m 0,0 km/h (0 Bft) NW 315 7,3 C 9,1 C 0,0 km/h (0 Bft)
29.08.2013 23:10 9,1 C 88 % 1024,0 hPa 0,0 l/m 0,0 km/h (0 Bft) W-SW 247 7,2 C 9,0 C 0,0 km/h (0 Bft)
29.08.2013 23:15 8,7 C 88 % 1024,0 hPa 0,0 l/m 0,0 km/h (0 Bft) W-SW 247 6,8 C 8,8 C 0,0 km/h (0 Bft)
29.08.2013 23:20 8,7 C 88 % 1023,9 hPa 0,0 l/m 0,0 km/h (0 Bft) W-SW 247 6,8 C 8,6 C 0,0 km/h (0 Bft)
29.08.2013 23:25 8,6 C 89 % 1023,9 hPa 0,0 l/m 0,0 km/h (0 Bft) O 90 6,9 C 8,4 C 0,0 km/h (0 Bft)
29.08.2013 23:30 8,5 C 89 % 1023,9 hPa 0,0 l/m 0,0 km/h (0 Bft) O-NO 67 6,8 C 8,3 C 0,0 km/h (0 Bft)
29.08.2013 23:35 8,6 C 89 % 1023,9 hPa 0,0 l/m 0,0 km/h (0 Bft) O-NO 67 6,9 C 8,3 C 0,0 km/h (0 Bft)
29.08.2013 23:40 8,7 C 89 % 1023,9 hPa 0,0 l/m 0,0 km/h (0 Bft) SW 225 7,0 C 8,5 C 0,0 km/h (0 Bft)
29.08.2013 23:45 8,9 C 89 % 1023,9 hPa 0,0 l/m 0,3 km/h (0 Bft) S-SO 157 7,2 C 8,8 C 0,0 km/h (0 Bft)
29.08.2013 23:50 9,0 C 89 % 1023,9 hPa 0,0 l/m 0,3 km/h (0 Bft) SO 135 7,3 C 8,9 C 0,0 km/h (0 Bft)
29.08.2013 23:55 8,9 C 89 % 1023,9 hPa 0,0 l/m 0,0 km/h (0 Bft) O-SO 112 7,2 C 8,8 C 0,0 km/h (0 Bft)
_ Min-Zeit 06:05 12:30 05:55 - 23:55 - - 05:50 06:10 23:55
Minimum _ 5,9 C 43 % 1022,2 hPa - 0,0 km/h (0 Bft) - - 4,9 C 5,9 C 0,0 km/h (0 Bft)
_ Max-Zeit 14:55 06:05 13:35 23:55 16:10 - - 09:20 17:10 15:05
Maximum _ 22,1 C 94 % 1024,8 hPa 0,0 l/m 5,8 km/h
W-NW (2 Bft)
- - 11,7 C 25,2 C 12,7 km/h
N (3 Bft)
Durchschnitt _ 13,6 C 73 % 1023,5 hPa #0,0 l/m 1,7 km/h (1 Bft) W-NW - 8,3 C 14,8 C 2,3 km/h (1 Bft)